This is the latest recevied weather packets stored in our database for station/object N5PUP-13. If no packets are shown the sender has not sent any weather packets the latest 10 day(s).
| Time | Temp. | Humidity | Pressure | Rain* | Wind** | Luminosity | Snow |
|---|---|---|---|---|---|---|---|
| 1787439000 | 36.11° C | 32% | 1015.9 hPa | 0 mm | - | - | - |
| 1787438700 | 36.11° C | 32% | 1015.9 hPa | 0 mm | - | - | - |
| 1787438400 | 36.11° C | 31% | 1016 hPa | 0 mm | - | - | - |
| 1787438100 | 36.11° C | 32% | 1016 hPa | 0 mm | - | - | - |
| 1787437800 | 36.11° C | 32% | 1016 hPa | 0 mm | - | - | - |
| 1787437500 | 36.11° C | 32% | 1016.1 hPa | 0 mm | - | - | - |
| 1787437200 | 36.67° C | 32% | 1016.1 hPa | 0 mm | - | - | - |
| 1787436900 | 36.67° C | 32% | 1016.1 hPa | 0 mm | - | - | - |
| 1787436600 | 36.67° C | 32% | 1016.2 hPa | 0 mm | - | - | - |
| 1787436300 | 36.67° C | 32% | 1016.2 hPa | 0 mm | - | - | - |
| 1787436000 | 36.67° C | 31% | 1016.2 hPa | 0 mm | - | - | - |
| 1787435700 | 36.67° C | 31% | 1016.2 hPa | 0 mm | - | - | - |
| 1787435400 | 36.67° C | 32% | 1016.3 hPa | 0 mm | - | - | - |
| 1787435100 | 37.78° C | 30% | 1016.3 hPa | 0 mm | - | - | - |
| 1787434800 | 36.67° C | 31% | 1016.3 hPa | 0 mm | - | - | - |
| 1787434500 | 37.22° C | 31% | 1016.4 hPa | 0 mm | - | - | - |
| 1787434200 | 37.22° C | 31% | 1016.5 hPa | 0 mm | - | - | - |
| 1787433900 | 37.22° C | 31% | 1016.5 hPa | 0 mm | - | - | - |
| 1787433600 | 37.22° C | 30% | 1016.5 hPa | 0 mm | - | - | - |
| 1787433300 | 37.22° C | 31% | 1016.7 hPa | 0 mm | - | - | - |
| 1787433000 | 37.22° C | 31% | 1016.7 hPa | 0 mm | - | - | - |
| 1787432700 | 37.22° C | 31% | 1016.7 hPa | 0 mm | - | - | - |
| 1787432400 | 36.67° C | 32% | 1016.7 hPa | 0 mm | - | - | - |
| 1787432100 | 36.11° C | 33% | 1016.6 hPa | 0 mm | - | - | - |
| 1787431800 | 36.11° C | 33% | 1016.8 hPa | 0 mm | - | - | - |
* Rain latest hour (hover to see other rain measurements)
** Current wind speed in m/s (hover to see current wind gust speed)